CST,Max TemperatureF,Mean TemperatureF,Min TemperatureF,Max Dew PointF,MeanDew PointF,Min DewpointF,Max Humidity, Mean Humidity, Min Humidity, Max Sea Level PressureIn, Mean Sea Level PressureIn, Min Sea Level PressureIn, Max VisibilityMiles, Mean VisibilityMiles, Min VisibilityMiles, Max Wind SpeedMPH, Mean Wind SpeedMPH, Max Gust SpeedMPH,PrecipitationIn, CloudCover, Events, WindDirDegrees
2012-11-1,60,46,33,38,31,25,83,59,35,29.95,29.90,29.82,10,10,7,7,2,,0.00,3,,267
2012-11-2,51,41,31,34,31,28,95,68,42,30.13,30.06,29.94,10,10,10,8,2,,0.00,0,,2
2012-11-3,51,42,33,38,35,32,93,75,56,30.22,30.17,30.11,10,10,7,10,5,17,0.00,6,,61
2012-11-4,50,40,30,40,34,30,100,84,53,30.26,30.21,30.18,10,7,0,5,0,,0.00,5,Fog-Rain,335
2012-11-5,50,40,31,37,33,30,99,77,49,30.19,30.15,30.11,10,9,3,9,3,,0.00,2,,68
2012-11-6,45,41,37,44,39,32,99,89,74,30.11,29.96,29.88,10,6,2,7,3,,0.10,8,Rain,155
2012-11-7,46,42,39,44,41,37,96,90,83,30.18,30.06,29.88,10,6,2,8,3,,0.01,7,Rain,317
2012-11-8,53,48,42,42,39,35,90,77,54,30.22,30.14,30.06,10,9,7,10,3,,0.00,4,,149
2012-11-9,62,52,41,52,45,39,91,78,62,30.08,29.99,29.93,10,9,5,9,5,,0.00,2,,123
2012-11-10,75,65,55,56,53,50,90,66,48,29.96,29.90,29.83,10,10,7,26,10,33,0.01,2,Rain-Thunderstorm,158
2012-11-11,71,54,37,57,51,36,95,75,56,30.04,29.86,29.71,10,9,2,30,18,43,0.43,4,Rain,189
2012-11-12,41,35,29,35,25,21,90,67,48,30.38,30.21,30.02,10,10,10,23,12,29,0.00,4,,244
2012-11-13,45,35,25,28,26,23,93,69,44,30.52,30.46,30.39,10,10,10,7,2,,0.00,0,,178
2012-11-14,50,41,32,32,30,29,88,70,44,30.50,30.44,30.37,10,10,10,12,5,,0.00,0,,131
2012-11-15,52,42,31,34,31,29,94,71,43,30.39,30.35,30.32,10,10,7,6,2,,0.00,0,,153
2012-11-16,58,44,29,36,33,27,94,71,41,30.46,30.42,30.37,10,10,5,7,1,,0.00,0,,164
2012-11-17,59,44,30,38,33,28,92,71,39,30.53,30.47,30.41,10,8,4,10,2,,0.00,0,,125
2012-11-18,61,46,31,39,35,29,94,69,34,30.42,30.36,30.29,10,8,4,9,3,,0.00,0,,127
2012-11-19,55,50,45,47,42,38,83,72,56,30.30,30.19,30.10,10,10,7,9,3,,0.00,4,Rain,148
2012-11-20,65,54,41,50,46,39,91,75,54,30.19,30.12,30.08,10,7,0,5,1,,0.03,3,Fog,191
2012-11-21,59,50,42,50,45,40,93,86,66,30.25,30.18,30.09,7,2,0,10,2,,0.00,4,Fog-Rain,179
2012-11-22,69,58,45,51,46,37,82,63,43,30.09,29.94,29.82,10,8,5,25,10,34,0.01,2,Rain-Thunderstorm,184
2012-11-23,45,38,30,36,25,18,73,59,44,30.28,30.16,30.02,10,10,10,24,13,34,0.00,2,,271
2012-11-24,39,33,27,25,23,20,76,64,51,30.30,30.19,29.98,10,10,10,12,7,18,0.00,5,,221
2012-11-25,52,44,37,31,28,25,66,54,37,30.10,29.94,29.86,10,10,10,10,6,16,0.00,3,,261
2012-11-26,41,36,30,30,24,20,73,60,45,30.39,30.26,30.10,10,10,10,12,4,16,0.00,2,,325
2012-11-27,38,28,19,21,16,12,78,56,35,30.46,30.36,30.28,10,10,10,7,2,,0.00,1,,208
2012-11-28,52,41,30,30,24,20,69,53,30,30.41,30.33,30.27,10,10,10,9,3,,0.00,1,,180
2012-11-29,58,47,36,37,33,28,76,61,43,30.27,30.14,30.05,10,10,10,10,6,,0.00,0,,142
2012-11-30,62,52,41,38,36,34,79,59,38,30.11,30.06,30.03,10,10,10,12,4,,0.00,1,,155